Printer-friendly version
Follow the MPC on Twitter Follow the MPC on Facebook The MPC blog
Minor Planet Center

MPEC 2005-E25 : 2005 EU2

The following Minor Planet Electronic Circular may be linked-to from your own Web pages, but must not otherwise be redistributed electronically.

A form allowing access to any MPEC is at the bottom of this page.


Read MPEC 2005-E24 Read MPEC 2005-E26


M.P.E.C. 2005-E25                                Issued 2005 Mar. 5, 13:30 UT

     The Minor Planet Electronic Circulars contain information on unusual
         minor planets and routine data on comets.  They are published
   on behalf of Commission 20 of the International Astronomical Union by the
          Minor Planet Center, Smithsonian Astrophysical Observatory,
                          Cambridge, MA 02138, U.S.A.

                  Supported in part by the Brinson Foundation
             Prepared using the Tamkin Foundation Computer Network

                              MPC@CFA.HARVARD.EDU
          URL http://cfa-www.harvard.edu/iau/mpc.html  ISSN 1523-6714

                                   2005 EU2

Observations:
     K05E02U* C2005 03 04.23826 08 52 50.25 -04 59 58.5          19.3 R EE025703
     K05E02U  C2005 03 04.24840 08 52 48.84 -04 59 54.3          19.4 R EE025703
     K05E02U  C2005 03 04.25853 08 52 47.75 -04 59 51.0          19.0 R EE025703
     K05E02U  C2005 03 04.26861 08 52 46.40 -04 59 46.4          18.3 R EE025703
     K05E02U  C2005 03 04.84262 08 51 51.75 -04 55 55.2                 EE025246
     K05E02U  C2005 03 04.84736 08 51 51.12 -04 55 53.6                 EE025246
     K05E02U  C2005 03 04.84813 08 51 51.03 -04 55 52.1                 EE025246
     K05E02U  C2005 03 04.85185 08 51 50.58 -04 55 50.6                 EE025246
     K05E02U  C2005 03 04.85704 08 51 50.02 -04 55 49.0                 EE025246
     K05E02U  C2005 03 05.12301 08 51 24.52 -04 53 39.5          20.1 V EE025H36
     K05E02U  C2005 03 05.13477 08 51 23.07 -04 53 34.5          20.0 V EE025H36
     K05E02U  C2005 03 05.14447 08 51 21.89 -04 53 31.2          19.3 V EE025H36

Observer details:
246 Klet Observatory-KLENOT.  Observers M. Tichy, J. Ticha.  Measurer M. Tichy.
    1.06-m KLENOT Telescope + CCD.
703 Catalina Sky Survey.  Observer E. J. Christensen.  Measurers E. C. Beshore,
    C. M. Casey, E. J. Christensen, G. J. Garradd, R. E. Hill, S. M. Larson,
    R. H. McNaught.  0.68-m Schmidt + CCD.
H36 Sandlot Observatory, Scranton.  Observer G. Hug.  0.3-m f/6
    Schmidt-Cassegrain + CCD.

Orbital elements:
2005 EU2
Epoch 2005 Feb. 19.0 TT = JDT 2453420.5                 MPC
M 328.85840              (2000.0)            P               Q
n   0.50143829     Peri.   25.38001     -0.81609430     +0.57772906
a   1.5691256      Node   189.95128     -0.54376628     -0.77629136
e   0.3817917      Incl.    4.91504     -0.19572512     -0.25219209
P   1.97           H   22.6           G   0.15
From 12 observations 2005 Mar. 4-5.

Ephemeris:
2005 EU2                 a,e,i = 1.57, 0.38, 5                   q = 0.9700
Date    TT    R. A. (2000) Decl.     Delta      r     Elong.  Phase     V
2005 03 01    08 57.93   -05 17.0    0.138    1.112   149.7    26.7    19.7
2005 03 11    08 40.81   -03 48.5    0.096    1.067   138.3    38.3    19.2
2005 03 21    08 14.79   +00 32.0    0.057    1.029   123.3    54.0    18.4
2005 03 31    06 36.85   +19 37.2    0.022    0.999    88.4    90.4    17.5
2005 04 10    22 58.39   +28 30.3    0.030    0.979    38.1   140.8    21.9
2005 04 20    21 53.84   +17 55.5    0.067    0.970    57.6   119.0    21.4
2005 04 30    21 43.61   +14 50.3    0.106    0.974    68.7   105.5    21.6
2005 05 10    21 43.53   +13 36.3    0.143    0.989    77.6    94.3    21.7
2005 05 20    21 45.61   +12 59.3    0.176    1.015    86.0    84.1    21.8
2005 05 30    21 46.84   +12 31.1    0.204    1.050    94.6    74.3    21.8
2005 06 09    21 45.09   +11 52.3    0.227    1.092   104.0    64.4    21.9
2005 06 19    21 39.03   +10 43.5    0.246    1.140   114.5    54.2    21.8
2005 06 29    21 28.38   +08 51.9    0.265    1.193   126.2    43.5    21.8
2005 07 09    21 13.74   +06 10.7    0.287    1.247   138.9    32.4    21.7
2005 07 19    20 57.24   +02 47.6    0.317    1.304   151.6    21.7    21.7
2005 07 29    20 41.69   -00 53.1    0.358    1.360   162.0    13.4    21.8
2005 08 08    20 29.40   -04 24.7    0.414    1.417   164.3    11.2    22.1
2005 08 18    20 21.84   -07 26.9    0.485    1.472   157.7    15.1    22.7
2005 08 28    20 19.17   -09 51.3    0.571    1.527   148.7    20.1    23.3

Timothy B. Spahr             (C) Copyright 2005 MPC           M.P.E.C. 2005-E25

Read MPEC 2005-E24 Read MPEC 2005-E26


MPEC number:

Enter an MPEC number in one of the following forms:

  • 1997-B01 (the full form)
  • J97B01 (the packed version of the full form)
  • B01 (the abbreviated form)

Valid HTML 4.01!